sat.trackr.live / text

‹ back to catalog

STARLINK-36062

NORAD 66794 · 2025-278D

PAYLOAD ACTIVE UNKNOWN

§ Identity

Operator
Country
US
Launch date
2025-12-01
Launch site
AFETR
Launch vehicle
Mass (kg)
RCS (m²)

Purposes: comms

External: N2YO · Heavens-Above · Gunter

§ Orbital elements

Epoch: 2026-09-20T21:55:39.963072Z

Period
94.27 min
Inclination
43.0024°
Eccentricity
0.0001311
Mean motion
15.27581145 rev/d
Perigee alt
482.1 km
Apogee alt
483.9 km
Semi-major
6,861.2 km
B*
3.7545e-4
RAAN
92.0596°
Arg perigee
281.2876°
Mean anomaly
78.7828°
Rev number
4,506

§ Raw data

STARLINK-360621 66794U 25278D   26263.91365698  .00010084  00000+0  37545-3 0  99912 66794  43.0024  92.0596 0001311 281.2876  78.7828 15.27581145 45062

JSON: /api/v1/satellites/66794 · /tle

For live sub-satellite position, see the globe view (requires WebGL).

§ Visibility from observer

Set your observer location to see the next 7 days of passes ≥ 10°. The values pass through the URL so the page stays shareable.

No JS? Fill the form by hand. The geolocation button needs JavaScript.